Location: Newark
(47.3150°N, 5.1150°E)
Time: 15:11:18
(UTC+00:00)

AO-7 - Pass Details

Date: 17 December 2019
Orbit: 1440 x 1459 km, 101.8° (Epoch: 17 January)

Event Time Altitude Azimuth Distance (km) Brightness Sun altitude
Rises 06:15:28 0° 15° (NNE) 4,562 ? -10.5°
Reaches altitude 10° 06:19:16 10° 359° (N) 3,583 ? -10.0°
Maximum altitude 06:24:29 19° 319° (NW) 2,954 ? -9.1°
Drops below altitude 10° 06:29:43 10° 280° (W) 3,583 ? -8.3°
Enters shadow 06:31:45 - 270° (W) 4,071 ? -8.0°
